Regional Weather Roundup
Issued by NWS Wakefield, VA

Home | Current Version | Previous Version | Graphics & Text | Print | Product List | Glossary On
Versions: 1 2 3 4 5 6 7 8 9 10 11 12 13 14 15 16 17 18 19 20 21 22 23 24 25 26 27
000
ASUS41 KAKQ 240610
RWRAKQ

REGIONAL WEATHER ROUNDUP
NATIONAL WEATHER SERVICE WAKEFIELD VA
200 AM EDT THU APR 24 2014

Note: "fair" indicates few or no clouds below 12,000 feet with no
significant weather and/or obstructions to visibility. * = Denotes
station may not report precipitation (e.g., rain,snow,etc.),
thunder or fog.

VAZ042-051-052>054-056-240700-
NORTHERN VIRGINIA

CITY           SKY/WX    TMP DP  RH WIND       PRES   REMARKS
WASH NATIONAL  FAIR      49  29  46 NW9       30.03R
DULLES         FAIR      44  28  53 NW9       30.03R
FORT BELVOIR   FAIR      47  29  50 NW8       30.03R
QUANTICO       FAIR      48  28  46 N12       30.04S
FREDERICKSBRG* FAIR      47  32  55 NW9       30.02F
STAFFORD*      FAIR      44  32  61 NW8       30.07S
WARRENTON      FAIR      47  35  63 NW13      30.02F
CULPEPER*      FAIR      48  27  43 CALM      30.05S
MANASSAS*      FAIR      46  30  53 NW9       30.03S
LEESBURG*      FAIR      45  32  61 NW8G17    30.03R
WINCHESTER     FAIR      45  28  53 NW13G20   30.03S
$$

VAZ048-049-060>072-079>083-240700-
CENTRAL AND SOUTH CENTRAL VIRGINIA...AND NORTH CENTRAL NORTH CAROLINA

CITY           SKY/WX    TMP DP  RH WIND       PRES   REMARKS
RICHMOND       FAIR      48  32  53 N6        30.02R
CHESTERFIELD*  FAIR      46  25  42 CALM      30.04R
HANOVER        FAIR      47  32  56 VRB5      30.04R
TAPPAHANNOCK*  FAIR      49  26  41 NW3       30.02S
CHARLOTTSVILLE FAIR      48  26  42 N7        30.04R
ORANGE*        FAIR      41  32  70 W6        30.05S
LOUISA*        FAIR      46  32  57 CALM      30.02S
FARMVILLE*     FAIR      48  28  46 CALM      30.02R
SOUTH HILL*    FAIR      48  36  61 N3        30.07R
ROANOKE RAPIDS FAIR      46  36  66 CALM      30.02R
RALEIGH        FAIR      51  32  48 NE5       30.02S
$$

VAZ088>098-240700-
SOUTHEAST VIRGINIA

CITY           SKY/WX    TMP DP  RH WIND       PRES   REMARKS
NORFOLK        FAIR      53  35  50 N18G29    30.00R
VIRGINIA BEACH FAIR      53  35  50 N15       29.99R
NORFOLK NAVAL  FAIR      53  34  48 N17       30.02R
WEST POINT*    FAIR      52  30  43 NW6       30.03R
NEWPORT NEWS   FAIR      54  31  41 N12G20    30.01R
LANGLEY AFB    FAIR      51  32  48 N13       30.01R
FORT EUSTIS    FAIR      52  35  53 N10G18    29.99R
WILLIAMSBURG*  FAIR      52  36  54 N5        30.02R
FRANKLIN*      FAIR      50  36  57 N5        30.01R
WAKEFIELD      FAIR      49  33  54 N5        30.02R
$$

VAZ020-022-025-037-045-240700-
WESTERN AND SOUTHWEST VIRGINIA

CITY           SKY/WX    TMP DP  RH WIND       PRES   REMARKS
STAUNTON*      FAIR      38  29  67 SE3       30.06S
HOT SPRINGS VA FAIR      36  27  69 W8        30.06S
LYNCHBURG      FAIR      52  29  41 E5        30.05S
DANVILLE       FAIR      45  34  65 E3        30.03F
MARTINSVILLE     N/A     38  34  85 CALM      30.06S
ROANOKE        FAIR      51  28  41 N6        30.06S
BLACKSBURG     FAIR      45  34  65 N3        30.06F
DUBLIN*        FAIR      46  30  54 NW3       30.06S
MARION*        FAIR      41  27  57 CALM      30.07F
HILLSVILLE*    FAIR      45  21  39 NW10      30.07R
RICHLANDS*     FAIR      49  26  40 NE3       30.05F
WISE*          FAIR      45  23  42 N7        30.05F
ABINGDON*      FAIR      45  28  52 E5        30.04F
$$

MDZ021>025-VAZ099-100-240700-
SOUTHERN MARYLAND AND THE DELMARVA PENINSULA

CITY           SKY/WX    TMP DP  RH WIND       PRES   REMARKS
PATUXENT RIVER FAIR      48  30  49 W12       30.00R
BAY BRIDGE APT FAIR      46  32  57 NW12      29.99S
LEONARDTOWN    FAIR      45  30  57 W5        30.01S
DOVER          FAIR      44  30  58 W8        29.92R
GEORGETOWN     FAIR      46  29  51 CALM      29.96R
EASTON         FAIR      48  34  57 NW14      30.01S
CAMBRIDGE      FAIR      52  32  46 NW14G20   29.98S
SALISBURY      FAIR      48  30  49 NW6       29.96S
OCEAN CITY     FAIR      46  30  53 NW7       29.96R
WALLOPS ISLAND FAIR      48  31  51 NW12      29.97S
ACCOMACK*      FAIR      50  30  46 NW18G29   29.98S
$$

NCZ012>017-030>032-240700-
EASTERN NORTH CAROLINA

CITY           SKY/WX    TMP DP  RH WIND       PRES   REMARKS
ELIZABETH CITY FAIR      49  36  61 NW6       30.00R
AHOSKIE*       FAIR      44  37  78 CALM      30.01S
EDENTON*       FAIR      51  38  59 N8        29.99S
CURRITUCK*     FAIR      53  32  44 N8G16     29.99S
KILL DEVIL HLS FAIR      53  40  60 N9        29.97S
MANTEO         FAIR      53  39  58 N10G17    29.99R
CAPE HATTERAS  FAIR      51  43  74 NE5       29.98S
GOLDSBORO      FAIR      55  36  49 N3        30.00R
WASHINGTON     FAIR      53  41  65 N5        30.01R
GREENVILLE     FAIR      45  41  87 CALM      30.03R
NEW BERN       FAIR      52  42  69 CALM      30.01R
WILMINGTON     FAIR      49  42  77 CALM      29.97S
$$

VAZ048-240700-
ELSEWHERE

CITY           SKY/WX    TMP DP  RH WIND       PRES   REMARKS
HARRISBURG PA  FAIR      47  24  40 NW15G23   29.97R
BALTIMORE      FAIR      41  29  62 W7        29.99R
ANNAPOLIS      FAIR      46  30  53 W5        29.99S
ANDREWS AFB    FAIR      47  29  50 NW13      30.00S
WILMINGTON DE  FAIR      41  30  65 W8        29.96S
PHILADELPHIA   FAIR      46  26  45 W9        29.94S
WILDWOOD NJ*   FAIR      46  28  49 NW8       29.94S
ATLANTIC CITY  FAIR      43  25  49 NW12      29.90S
HENDERSON NC   FAIR      49  32  50 N6        30.03S
GREENSBORO     FAIR      53  28  38 CALM      30.02R
ROCKY MOUNT    FAIR      48  35  60 NE3       30.02R
FAYETTEVILLE   FAIR      52  35  52 N8        30.00R
CHARLOTTE      FAIR      56  29  35 NE7       30.01S
$$

VAZ100-240700-
MARINE

STATION/POSITION TIME  TEMP    WIND        PRES    WAVE   SWELL
                       AIR SEA DIR/SP/G            HT/PER HT/PER
                 (UTC) (F)     (DEG/KT/KT) (MB)    (FT/S) (FT/S)
44066 TX TWR #4  0600   45 45  310/ 25/ 31 1008.0S   8/ 7
CAPE MAY NJ      0600   48 59  340/ 10/ 18 1013.6R
LEWES DE         0600   48 52  310/ 16/ 19 1013.4R
15NM E FENWICK I 0600   48 47              1013.3R   5/ 6
OCEAN-CITY-INLET 0600   47 50  340/ 10/ 12 1014.0S
WACHAPREAGUE VA  0600   49 58  350/  5/ 10 1014.9F
THOMAS POINT MD  0600   48 54  290/ 13/ 17 1016.0S
GOOSES REEF MD   0600   49     320/ 14/ 17   N/A
COVE POINT MD    0600   49     330/ 10/ 14 1015.6R
SOLOMONS ISLAND  0600      55                N/A
BISHOPS HEAD MD  0600   49 55  320/ 13/ 17 1015.3R
PINEY POINT MD   0600          350/ 18/ 20   N/A
POTOMAC MD       0600   51     340/ 17/ 19 1015.4S
CAMBRIDGE MD     0600   51 57  310/ 13/ 23 1014.8R
LEWISETTA VA     0600   51 57  340/ 13/ 18 1015.9S
RAPPAHANNOCK LGT 0600          340/ 26/ 29 1015.7R
STINGRAY PT      0600   52     350/ 16/ 19 1015.8R
YORK RVR RNG VA  0600   53      10/ 18/ 21 1014.7R
YORKTOWN VA      0600   53 57  340/ 15/ 19 1015.7R
JAMESTOWN VA     0600   52      10/  6/ 10   N/A
DOMINION TERM VA 0600   54     330/  3/ 11 1015.7R
KIPTOPEKE VA     0600      56   10/ 17/ 24   N/A
CHES BAY BRIDGE  0600   54 54  340/ 21/ 25 1015.4R
CAPE HENRY VA    0600   53     350/ 23/ 28   N/A
CHESAPEAKE LGHT  0500   53     340/ 26/ 28 1015.1R
WILLOUBY STN VA  0600   53     350/ 17/ 21 1014.9R
S CRANEY ISL VA  0600          330/ 17/ 22 1015.7S
CAPE HENRY BUOY  0600      47                N/A     4/ 4
1ST LANDING BUOY 0600      49                N/A     4/ 4   2/ 9
64NM E OF VA BCH 0600   51 49  340/ 17/ 21 1013.9R   4/ 5   2/15
DUCK PIER NC     0600   53 51  350/ 15/ 17 1014.0S
44100 DUCK FRF   0600      49                N/A     4/ 5   2/14
44056 DUCK FRF   0600      50                N/A     3/ 5   2/14
OREGON INLET NC  0600   53 54  340/  7/ 10 1015.3R
HATTERAS NC      0600   56 62   30/  4/  5 1015.4R
DIAMOND SHLS NC  0600   61 74  360/ 16/ 19 1014.7R   4/ 8   3/ 8
CAPE LOOKOUT NC  0500   61      30/  8/  9 1014.6R
FRYING PAN SHLS  0600   68 68  100/  8/ 10 1014.2F   2/ 8   2/ 8
$$



USA.gov is the U.S. government's official web portal to all federal, state and local government web resources and services.